Location: Br�znic
(45.9167°N, 22.6500°E)
Time: 14:13:35
(UTC+00:00)

Cosmos 2327 Rocket - Pass Details

Date: 03 March 2021
Orbit: 943 x 1009 km, 83.0° (Epoch: 16 April)

Event Time Altitude Azimuth Distance (km) Brightness Sun altitude
Rises 17:16:37 0° 183° (S) 3,711 7.6 -10.8°
Reaches altitude 10° 17:19:09 10° 183° (S) 2,758 6.9 -11.3°
Maximum altitude 17:25:29 83° 97° (E) 1,000 4.5 -12.4°
Drops below altitude 10° 17:31:46 10° 10° (N) 2,733 6.8 -13.5°
Sets 17:34:16 0° 10° (N) 3,675 7.5 -13.9°
